Dalhart, TX

2:58 PM CDT on April 27, 2017 (GMT -0500)
Dalhart Municipal

Weather History for KDHT - October, 2012

Change the Weather History Date:

Tuesday, October 30, 2012

  Actual Average Record
Temperature  
Mean Temperature 59 °F 51 °F  
Max Temperature 78 °F 67 °F 85 °F (1950)
Min Temperature 39 °F 35 °F 9 °F (1993)
Degree Days  
Heating Degree Days 6 14  
Month to date heating degree days 288 282  
Since 1 July heating degree days 314 345  
Cooling Degree Days 0 0  
Month to date cooling degree days 6 8  
Year to date cooling degree days 1648 1136  
Growing Degree Days 8 (Base 50)    
Moisture  
Dew Point 26 °F    
Average Humidity 36    
Maximum Humidity 59    
Minimum Humidity 13    
Precipitation  
Precipitation 0.00 in 0.04 in 1.58 in (1998)
Month to date precipitation 0.02 1.43  
Year to date precipitation 6.35 16.43  
Snow  
Snow 0.00 in 0.10 in 3.20 in (1991)
Month to date snowfall 0.0 0.6  
Since 1 July snowfall 0.0 0.6  
Since 1 September snowfall 0.0 0.6  
Snow Depth 0.00 in    
Sea Level Pressure  
Sea Level Pressure 30.02 in    
Wind  
Wind Speed 5 mph (NNW)    
Max Wind Speed 13 mph    
Max Gust Speed 15 mph    
Visibility 10 miles    
Events      
T = Trace of Precipitation, MM = Missing Value Source: NWS Daily Summary

Daily Weather History Graph

Daily Weather History Graph

Search for Another Location

Airport or City:

Trip Planner

Search our weather history database for the weather conditions in past years. The results will help you decide how hot, cold, wet, or windy it might be!

Date:

Astronomy

Oct. 30, 2012 Rise Set
Actual Time 8:11 AM CDT 6:55 PM CDT
Civil Twilight 7:44 AM CDT 7:22 PM CDT
Nautical Twilight 7:14 AM CDT 7:52 PM CDT
Astronomical Twilight 6:44 AM CDT 8:22 PM CDT
Moon 7:29 PM CDT (10/30) 8:57 AM CDT (10/30)
Length of Visible Light 11h 37m
Length of Day
10h 44m
Full, 99% of the Moon is Illuminated
Oct 30
Full
Nov 6
Last Quarter
Nov 13
New
Nov 20
First Quarter
Nov 28
Full

Hourly Weather History & Observations

Time (CDT) Temp. Windchill Dew Point Humidity Pressure Visibility Wind Dir Wind Speed Gust Speed Precip Events Conditions
12:53 AM 45.0 °F 40.6 °F 28.0 °F 52% 30.03 in 10.0 mi SW 8.1 mph - N/A   Clear
1:53 AM 45.0 °F 41.2 °F 28.0 °F 52% 30.03 in 10.0 mi WSW 6.9 mph - N/A   Clear
2:53 AM 44.1 °F 42.5 °F 28.0 °F 53% 30.02 in 10.0 mi NNE 3.5 mph - N/A   Clear
3:53 AM 41.0 °F - 27.0 °F 57% 30.02 in 10.0 mi Calm Calm - N/A   Clear
4:53 AM 39.0 °F 35.7 °F 27.0 °F 62% 30.01 in 10.0 mi NW 4.6 mph - N/A   Clear
5:53 AM 41.0 °F 35.8 °F 26.1 °F 55% 30.01 in 10.0 mi NW 8.1 mph - N/A   Clear
6:53 AM 41.0 °F 35.2 °F 26.1 °F 55% 30.02 in 10.0 mi NW 9.2 mph - N/A   Clear
7:53 AM 42.1 °F 36.1 °F 27.0 °F 55% 30.04 in 10.0 mi NW 10.4 mph - N/A   Clear
8:53 AM 45.0 °F 40.1 °F 26.1 °F 48% 30.06 in 10.0 mi NW 9.2 mph - N/A   Clear
9:53 AM 53.6 °F - 26.6 °F 35% 30.12 in 10.0 mi NNW 9.2 mph - N/A   Clear
10:53 AM 64.9 °F - 26.1 °F 23% 30.03 in 10.0 mi North 9.2 mph - N/A   Clear
11:53 AM 72.0 °F - 24.1 °F 17% 30.04 in 10.0 mi North 6.9 mph - N/A   Clear
12:53 PM 75.0 °F - 21.9 °F 14% 30.01 in 10.0 mi NNE 6.9 mph - N/A   Clear
1:53 PM 77.0 °F - 23.0 °F 13% 29.98 in 10.0 mi Calm Calm - N/A   Clear
2:53 PM 75.9 °F - 24.1 °F 15% 29.96 in 10.0 mi Calm Calm - N/A   Clear
3:53 PM 77.0 °F - 24.1 °F 14% 29.96 in 10.0 mi Calm Calm - N/A   Clear
4:53 PM 77.0 °F - 24.1 °F 14% 29.96 in 10.0 mi WSW 4.6 mph - N/A   Clear
5:53 PM 77.0 °F - 24.8 °F 14% 30.06 in 10.0 mi North 4.6 mph - N/A   Clear
6:53 PM 73.4 °F - 24.8 °F 16% 30.06 in 10.0 mi Calm Calm - N/A   Clear
7:53 PM 63.0 °F - 28.0 °F 27% 30.00 in 10.0 mi East 5.8 mph - N/A   Clear
8:53 PM 60.1 °F - 26.1 °F 27% 30.02 in 10.0 mi SE 4.6 mph - N/A   Clear
9:53 PM 57.9 °F - 27.0 °F 31% 30.01 in 10.0 mi East 3.5 mph - N/A   Clear
10:53 PM 54.0 °F - 27.0 °F 35% 30.01 in 10.0 mi Calm Calm - N/A   Clear
11:53 PM 48.9 °F - 28.0 °F 44% 30.00 in 9.0 mi Calm Calm - N/A   Clear